AirNav   Everest Fuels
 
 973 users online  

SC82 Oakhill Airpark
Williamson, South Carolina, USA

GOING TO WILLIAMSON?


FAA INFORMATION EFFECTIVE 18 JUNE 2020

Location

FAA Identifier: SC82
Lat/Long: 34-35-07.8600N 082-21-08.2200W
34-35.131000N 082-21.137000W
34.5855167,-82.3522833
(estimated)
Elevation: 837 ft. / 255 m (estimated)
Variation: 04W (1990)
From city: 8 miles E of WILLIAMSON, SC
Time zone: UTC -4 (UTC -5 during Standard Time)
Zip code: 29697

Airport Operations

Airport use: Private use. Permission required prior to landing
Activation date: 04/1993
Control tower: no
ARTCC: ATLANTA CENTER
FSS: ANDERSON FLIGHT SERVICE STATION
Attendance: UNATNDD
Wind indicator: yes
Segmented circle: no
Lights: ACTVT LIRL RY 10/28 122.9.

Airport Communications

WX AWOS-3 at GYH (10 nm N): 127.325 (864-277-5674)
WX ASOS at GMU (16 nm N): 127.075 (864-239-0014)
WX ASOS at AND (18 nm W): 120.675
WX ASOS at GSP (20 nm N): 134.25 (864-879-0614)

Nearby radio navigation aids

VOR radial/distance  VOR name  Freq  Var
GRDr335/22.3GREENWOOD VORTAC115.5001W
ELWr065/23.6ELECTRIC CITY VORTAC108.6000E
SPAr220/34.1SPARTANBURG VORTAC115.7002W

 
NDB name  Hdg/Dist  Freq  Var  ID
DYANA149/7.833804WGY --. -.--
JUDKY186/11.752105WGM --. --
CORONACA334/23.823907WGIW --. .. .--
FAIRMONT229/26.224805WFRT ..-. .-. -
UNION COUNTY266/35.532606WUOT ..- --- -
ENOREE302/39.127807WEOE . --- .

Airport Services

Runway Information

Runway 10/28

Dimensions: 2400 x 100 ft. / 732 x 30 m
Surface: turf, in good condition
Runway edge lights: low intensity
RUNWAY 10  RUNWAY 28
Traffic pattern: leftleft
Obstructions: 50 ft. trees, 1000 ft. from runway50 ft. trees, 800 ft. from runway

Airport Ownership and Management from official FAA records

Ownership: Privately-owned
Owner: OAKHILL AIRPARK PROPERTY OWNERS
2 AERONCA ROAD
BELTON, SC 29627
Phone 864-299-6018
Manager: MICHAEL JODOIN
21 AERONCA ROAD
BELTON, SC 29627
Phone (864) 419-8565

Airport Operational Statistics

Aircraft based on the field: 15
Single engine airplanes: 13
Multi engine airplanes: 1
Helicopters: 1
    

Additional Remarks

FOR CD CTC ATLANTA ARTCC AT 770-210-7692.

Instrument Procedures

There are no published instrument procedures at SC82.

Some nearby airports with instrument procedures:

KGYH - Donaldson Field Airport (10 nm N)
KGMU - Greenville Downtown Airport (16 nm N)
KAND - Anderson Regional Airport (18 nm W)
KGSP - Greenville Spartanburg International Airport (20 nm N)
KLUX - Laurens County Airport (21 nm E)
 
Loc | Ops | Rwys | IFR | FBO | Links
Com | Nav | Svcs | Stats | Notes
Aerial photo
WARNING: Photo may not be current or correct
Aerial photo of SC82 (Oakhill Airpark)
Photo by Chris Goodwin
Photo taken 16-Sep-2016
looking east

Do you have a better or more recent aerial photo of Oakhill Airpark that you would like to share? If so, please send us your photo.

 
Sectional chart

 
Airport distance calculator
Flying to Oakhill Airpark? Find the distance to fly.

From to SC82

Sunrise and sunset
Times for 13-Jul-2020
 Local
(UTC-4)
 Zulu
(UTC)
Morning civil twilight05:5909:59
Sunrise06:2810:28
Sunset20:4200:42
Evening civil twilight21:1101:11

Current date and time
Zulu (UTC)  14-Jul-2020 00:27:03
Local (UTC-4)  13-Jul-2020 20:27:03
 
METAR
KGYH 
10nm N 
132347Z 00000KT 10SM CLR 31/21 A2989
KGMU 
16nm N 
132353Z 33006KT 10SM CLR 32/19 A2990 RMK AO2 SLP112 60000 T03220194 10339 20311 53004
KAND 
19nm W 
132356Z AUTO 24003KT 10SM CLR 32/18 A2988 RMK AO2 SLP107 T03170183 10333 20311 53001
KGSP 
20nm N 
132353Z 00000KT 10SM BKN060 32/19 A2989 RMK AO2 SLP109 T03170189 10344 20306 53005
KLUX 
21nm E 
132255Z AUTO 27005KT 7SM CLR 32/21 A2987 RMK AO2
TAF
KGMU 
16nm N 
131735Z 1318/1418 35004KT P6SM SCT060 SCT250 FM140500 02005KT P6SM SCT250 FM141500 06005KT P6SM FEW045 FEW250
KAND 
19nm W 
131735Z 1318/1418 26004KT P6SM SCT050 SCT250 FM140000 30003KT P6SM FEW250 FM140800 06004KT P6SM FEW200
NOTAMs
Click for the latest NOTAMs
NOTAMs are issued by the DoD/FAA and will open in a separate window not controlled by AirNav.

 

 
 

Would you like to see your business listed on this page?

 If your business provides an interesting product or service to pilots, flight crews, aircraft, or users of the Oakhill Airpark, you should consider listing it here.  To start the listing process, click on the button below
 
Add a business
 

Other Pages about Oakhill Airpark

Update a link
 
Copyright © AirNav, LLC. All rights reserved. Privacy Policy  Contact